DECAYED

STARLINK-5024, 53901 (Decayed)

Orbit data source: Space-Track

STARLINK-5024, 53901 was a payload satellite owned by SpaceX/Seattle (US) in LEO that was launched on Sat, 24 Sep 2022 UTC via an FALCON 9 launch vehicle from the Air Force Eastern Test Range (AFETR). Payload-class satellites include a variety of spacecraft equipped with specific instruments for various scientific and technological missions. These include communications satellites like Starlink; space stations such as the ISS; scientific satellites like the Hubble; Earth observation satellites from companies like Planet Labs, Umbra, and HawkEye 360; GPS; miniature CubeSats for education and research; and military/defense satellites.

Not visible in the next 10 days
Identifier
53901, 2022-119R
Orbit
Decayed
Country
Flag of USUS
Related business
Manufacturer
SpaceX/Seattle
Mission
Decayed Commercial Communications
Bus & Motor
STARLINK, Unknown motor
Mass
305 kg wet, ~290 kg dry
Launch date (UTC)
2022-09-24 (4 years ago)
Launch vehicle
FALCON 9
Launch site
Air Force Eastern Test Range (AFETR)
Object type
Payload
Rocket body
Debris
Shape & HBR
Box + 1 Pan, 10.1 m
Radar Cross Section
13.562 m², Large (>1 m²)

Expand to show TLE details & history
Last TLE update: 2 months ago

TLE from 2 months ago
0 STARLINK-5024
1 53901U 22119R   26104.15611562  .15040934  12614-4  14909-3 0  9993
2 53901  53.1828  59.4844 0007512 256.8255 103.1960 16.50544362198520
Epoch: 2026-04-14T03:44Z
TLE epoch observation values (Epoch: 2026-04-14T03:44:48.389Z)
Latitude
-0.00002°
Longitude
160.94635°
Altitude
139.972 km
Speed
7.823 km/s
True Right ascension
03h 57m 56s
True Declination
0° 00' 00"
Sunlit
Object was in daylight at epoch
Visualization orbit readout
Latitude
Unknown
Longitude
Unknown
Altitude
Unknown
Speed
Unknown
Apparent Right ascension
Unknown
Apparent Declination
Unknown
Sunlit
N/A
Visualization observer readout
Local Sidereal Time
21:31:01
Azimuth
Unknown
Elevation
Unknown
Doppler factor
Unknown
Orbital elements
Apogee altitude
143.063 km
Perigee altitude
133.273 km
Semi-major axis
6,516.305 km
Eccentricity
0.00075
Inclination
53.1828°
RAAN
59.4844°
Arg. of periapsis
256.8255°
True anomaly
103.27979°
Mean anomaly
103.196°
Eccentric anomaly
103.2379°
Mean motion
4.12611 °/min
Orbital period
87.25 mins
BSTAR
0.00014909
Loading maneuver chart data...
Computing Atmospheric mass density...
Loading historical data...
Loading historical data...
Loading historical data...
Loading historical data...
Loading historical data...
Loading historical data...
Loading historical data...

Documentation

Showing up to 5 results
|